CW9181 Weather Reports


time (UTC)temp
C
wind
direction
speed
KPH
gust
KPH
rain 1hr
cm
rain 24hr
cm
rain mn
cm
humidity
%
barometer
mb
20240614131030 13 136 4.8 11.3 0.00 0.00 0.00 74 1014.8
20240614130012 13 146 6.4 14.5 0.00 0.00 0.00 74 1014.9
20240614125029 13 136 4.8 12.9 0.00 0.00 0.00 74 1014.7
20240614124011 13 146 6.4 14.5 0.00 0.00 0.00 76 1014.6
20240614123012 13 153 6.4 12.9 0.00 0.00 0.00 74 1014.6
20240614122016 13 132 4.8 11.3 0.00 0.00 0.00 75 1014.4
20240614121017 13 128 4.8 14.5 0.00 0.00 0.00 75 1014.3
20240614120016 13 143 4.8 11.3 0.00 0.00 0.00 76 1014.3
20240614115005 13 122 4.8 8.0 0.00 0.00 0.00 76 1014.1
20240614114008 13 134 3.2 12.9 0.00 0.00 0.00 77 1014.0
20240614113012 13 108 4.8 12.9 0.00 0.00 0.00 77 1014.0
20240614112012 13 137 4.8 11.3 0.00 0.00 0.00 77 1014.0
20240614111017 13 114 6.4 14.5 0.00 0.00 0.00 76 1013.9
20240614110016 13 141 4.8 12.9 0.00 0.00 0.00 75 1013.9
20240614105014 13 169 4.8 12.9 0.00 0.00 0.00 75 1014.0
20240614104014 13 155 4.8 17.7 0.00 0.00 0.00 75 1013.9
20240614103009 13 115 6.4 14.5 0.00 0.00 0.00 74 1013.9
20240614102005 13 185 6.4 16.1 0.00 0.00 0.00 74 1013.8
20240614101002 13 187 8.0 19.3 0.00 0.00 0.00 74 1013.7
20240614100043 14 174 8.0 12.9 0.00 0.00 0.00 73 1013.9
20240614095016 14 130 4.8 9.7 0.00 0.00 0.00 73 1013.8
20240614094009 14 161 6.4 12.9 0.00 0.00 0.00 73 1013.9
20240614093003 14 173 4.8 11.3 0.00 0.00 0.00 73 1014.0
20240614092020 14 169 8.0 16.1 0.00 0.00 0.00 73 1014.0
20240614091038 14 175 6.4 17.7 0.00 0.00 0.00 72 1014.0
20240614090017 14 166 9.7 14.5 0.00 0.00 0.00 72 1014.1
20240614085012 14 180 6.4 14.5 0.00 0.00 0.00 72 1014.0
20240614084006 14 184 6.4 12.9 0.00 0.00 0.00 72 1014.1
20240614083002 14 180 9.7 17.7 0.00 0.00 0.00 72 1014.1
20240614082055 15 199 11.3 19.3 0.00 0.00 0.00 72 1014.1
20240614081008 15 122 8.0 20.9 0.00 0.00 0.00 70 1014.4
20240614080002 15 170 9.7 16.1 0.00 0.00 0.00 70 1014.3
20240614075001 15 184 9.7 19.3 0.00 0.00 0.00 70 1014.1
20240614074041 15 176 6.4 14.5 0.00 0.00 0.00 70 1014.1
20240614073020 15 152 8.0 14.5 0.00 0.00 0.00 69 1014.2
20240614072020 16 161 6.4 20.9 0.00 0.00 0.00 68 1014.3
20240614071020 16 131 9.7 17.7 0.00 0.00 0.00 69 1014.4
20240614070017 16 137 8.0 14.5 0.00 0.00 0.00 69 1014.4
20240614065018 16 153 8.0 19.3 0.00 0.00 0.00 67 1014.4
20240614064033 16 139 8.0 19.3 0.00 0.00 0.00 66 1014.4
20240614063028 17 182 8.0 16.1 0.00 0.00 0.00 66 1014.3
20240614062039 17 186 6.4 14.5 0.00 0.00 0.00 65 1014.4
20240614061009 17 106 6.4 17.7 0.00 0.00 0.00 65 1014.2
20240614060019 17 169 6.4 14.5 0.00 0.00 0.00 64 1014.2
20240614055032 17 158 6.4 19.3 0.00 0.00 0.00 63 1014.2
20240614054003 18 149 3.2 17.7 0.00 0.00 0.00 62 1014.0
20240614053013 18 204 4.8 17.7 0.00 0.00 0.00 62 1014.0
20240614052013 18 172 9.7 16.1 0.00 0.00 0.00 61 1013.9
20240614051021 19 149 9.7 20.9 0.00 0.00 0.00 60 1013.8
20240614050004 20 147 9.7 17.7 0.00 0.00 0.00 58 1013.8
20240614045020 20 154 11.3 17.7 0.00 0.00 0.00 57 1013.8
20240614044020 21 162 8.0 17.7 0.00 0.00 0.00 55 1013.5
20240614043038 21 197 12.9 22.5 0.00 0.00 0.00 54 1013.2
20240614042019 21 182 11.3 19.3 0.00 0.00 0.00 54 1013.0
20240614041016 22 178 6.4 20.9 0.00 0.00 0.00 53 1012.7
20240614040008 22 183 6.4 17.7 0.00 0.00 0.00 53 1012.6
20240614035005 22 143 6.4 16.1 0.00 0.00 0.00 52 1012.6
20240614034006 23 162 8.0 17.7 0.00 0.00 0.00 52 1012.5
20240614033007 23 161 9.7 20.9 0.00 0.00 0.00 50 1012.5
20240614032026 24 158 9.7 20.9 0.00 0.00 0.00 48 1012.5
20240614031008 25 128 14.5 24.1 0.00 0.00 0.00 46 1012.3
20240614030008 25 156 6.4 20.9 0.00 0.00 0.00 47 1012.3
20240614025009 26 212 12.9 20.9 0.00 0.00 0.00 44 1012.2
20240614024010 26 180 11.3 20.9 0.00 0.00 0.00 44 1012.1
20240614023014 27 159 8.0 22.5 0.00 0.00 0.00 44 1011.9
20240614022013 27 189 11.3 22.5 0.00 0.00 0.00 43 1011.8
20240614021012 28 181 8.0 20.9 0.00 0.00 0.00 42 1011.7
20240614020020 28 172 11.3 20.9 0.00 0.00 0.00 41 1011.7
20240614015017 29 265 4.8 17.7 0.00 0.00 0.00 39 1011.6
20240614014020 29 164 8.0 19.3 0.00 0.00 0.00 38 1011.5
20240614013004 29 234 6.4 17.7 0.00 0.00 0.00 38 1011.4
20240614012033 29 182 12.9 20.9 0.00 0.00 0.00 37 1011.1
20240614011008 29 184 11.3 22.5 0.00 0.00 0.00 36 1011.2
20240614010012 30 190 12.9 25.7 0.00 0.00 0.00 36 1011.2
20240614005007 30 213 9.7 19.3 0.00 0.00 0.00 35 1011.2
20240614004028 30 215 6.4 22.5 0.00 0.00 0.00 35 1011.3
20240614003041 31 196 9.7 17.7 0.00 0.00 0.00 34 1011.3
20240614002022 31 189 9.7 16.1 0.00 0.00 0.00 32 1011.4
20240614001021 31 209 8.0 19.3 0.00 0.00 0.00 34 1011.3
20240614000017 31 234 8.0 20.9 0.00 0.00 0.00 35 1011.4
20240613235017 31 144 8.0 19.3 0.00 0.00 0.00 35 1011.3
20240613234019 31 100 9.7 22.5 0.00 0.00 0.00 36 1011.3
20240613233021 31 161 8.0 17.7 0.00 0.00 0.00 35 1011.2
20240613232019 30 197 12.9 20.9 0.00 0.00 0.00 34 1011.3
20240613231022 31 143 8.0 22.5 0.00 0.00 0.00 35 1011.4
20240613230021 30 110 4.8 16.1 0.00 0.00 0.00 35 1011.3
20240613225003 31 255 8.0 14.5 0.00 0.00 0.00 35 1011.5
20240613224009 30 160 6.4 14.5 0.00 0.00 0.00 37 1011.6
20240613223017 30 182 9.7 19.3 0.00 0.00 0.00 36 1011.7
20240613222018 30 189 6.4 17.7 0.00 0.00 0.00 36 1011.7
20240613221015 30 188 8.0 20.9 0.00 0.00 0.00 37 1011.7
20240613220017 30 155 6.4 12.9 0.00 0.00 0.00 35 1011.8
20240613215017 29 188 4.8 14.5 0.00 0.00 0.00 37 1012.0
20240613214035 29 161 4.8 12.9 0.00 0.00 0.00 35 1012.0
20240613213018 28 237 8.0 17.7 0.00 0.00 0.00 38 1011.9
20240613212019 28 276 6.4 16.1 0.00 0.00 0.00 39 1012.1
20240613211039 28 249 3.2 16.1 0.00 0.00 0.00 37 1012.1
20240613210014 28 174 4.8 17.7 0.00 0.00 0.00 38 1012.1
20240613205012 28 214 8.0 14.5 0.00 0.00 0.00 39 1012.2
20240613204033 28 211 4.8 12.9 0.00 0.00 0.00 41 1012.3
20240613203018 28 152 8.0 14.5 0.00 0.00 0.00 40 1012.4
20240613202015 27 191 6.4 17.7 0.00 0.00 0.00 41 1012.5
20240613201036 27 270 3.2 14.5 0.00 0.00 0.00 40 1012.5
20240613200008 27 186 4.8 12.9 0.00 0.00 0.00 41 1012.6
20240613195042 27 205 6.4 16.1 0.00 0.00 0.00 43 1012.7
20240613194002 27 164 8.0 16.1 0.00 0.00 0.00 41 1012.8
20240613193007 26 214 4.8 20.9 0.00 0.00 0.00 43 1012.7
20240613192009 26 138 8.0 14.5 0.00 0.00 0.00 40 1012.8
20240613191012 26 239 4.8 16.1 0.00 0.00 0.00 43 1012.9
20240613190013 26 166 1.6 14.5 0.00 0.00 0.00 43 1012.9
20240613185014 26 195 4.8 12.9 0.00 0.00 0.00 44 1012.8
20240613184019 26 104 8.0 14.5 0.00 0.00 0.00 41 1012.8
20240613183042 25 229 4.8 16.1 0.00 0.00 0.00 41 1012.8
20240613182038 25 274 3.2 12.9 0.00 0.00 0.00 42 1012.8
20240613181018 25 226 6.4 12.9 0.00 0.00 0.00 44 1012.7
20240613180002 25 181 3.2 16.1 0.00 0.00 0.00 44 1012.7
20240613175017 24 260 6.4 9.7 0.00 0.00 0.00 46 1012.7
20240613174020 24 195 4.8 16.1 0.00 0.00 0.00 45 1012.8
20240613173024 23 246 6.4 16.1 0.00 0.00 0.00 46 1012.8
20240613172011 23 183 9.7 16.1 0.00 0.00 0.00 46 1012.7
20240613171016 23 260 3.2 12.9 0.00 0.00 0.00 49 1012.7
20240613170006 23 240 4.8 16.1 0.00 0.00 0.00 48 1012.7
20240613165009 22 146 6.4 16.1 0.00 0.00 0.00 49 1012.8
20240613164012 22 141 6.4 17.7 0.00 0.00 0.00 49 1012.9
20240613163027 22 205 4.8 14.5 0.00 0.00 0.00 53 1012.9
20240613162029 21 128 4.8 12.9 0.00 0.00 0.00 54 1012.9
20240613161009 21 209 4.8 12.9 0.00 0.00 0.00 54 1012.9
20240613160006 21 177 8.0 14.5 0.00 0.00 0.00 55 1012.8
20240613155008 20 201 4.8 17.7 0.00 0.00 0.00 57 1012.8
20240613154032 20 168 4.8 20.9 0.00 0.00 0.00 59 1012.7
20240613153010 19 173 6.4 16.1 0.00 0.00 0.00 63 1012.7
20240613152013 18 192 8.0 14.5 0.00 0.00 0.00 64 1012.6
20240613151016 18 164 8.0 12.9 0.00 0.00 0.00 66 1012.6
20240613150018 17 177 9.7 14.5 0.00 0.00 0.00 68 1012.5
20240613145026 17 124 6.4 14.5 0.00 0.00 0.00 70 1012.5
20240613144029 16 134 11.3 19.3 0.00 0.00 0.00 71 1012.4
20240613143003 16 100 6.4 16.1 0.00 0.00 0.00 73 1012.2
20240613142007 16 174 6.4 16.1 0.00 0.00 0.00 74 1012.1
20240613141012 15 135 4.8 17.7 0.00 0.00 0.00 75 1012.2
20240613140013 15 162 6.4 17.7 0.00 0.00 0.00 76 1011.9
20240613135015 15 149 4.8 19.3 0.00 0.00 0.00 77 1011.9
20240613134042 15 158 6.4 14.5 0.00 0.00 0.00 77 1011.8
20240613133006 15 137 6.4 16.1 0.00 0.00 0.00 77 1011.6
20240613132004 15 120 4.8 12.9 0.00 0.00 0.00 77 1011.6